WA7BMK Weather Reports


Display with metric or nautical units.
time (UTC)temp
F
wind
direction
speed
MPH
gust
MPH
rain 1hr
in
rain 24hr
in
rain mn
in
humidity
%
barometer
mb
20260902110042 58 0 0.0 0.0 0.00 0.00 0.00 84 1009.0
20260902104604 58 192 0.0 1.0 0.00 0.00 0.00 84 1008.9
20260902103041 58 0 0.0 1.0 0.00 0.00 0.00 84 1009.2
20260902101538 58 0 0.0 2.0 0.00 0.00 0.00 85 1009.3
20260902094543 57 0 0.0 3.0 0.00 0.00 0.00 86 1009.4
20260902093036 58 0 0.0 0.0 0.00 0.00 0.00 86 1009.5
20260902091543 58 0 0.0 0.0 0.00 0.00 0.00 85 1009.6
20260902090042 59 209 0.0 2.0 0.00 0.00 0.00 85 1009.6
20260902084539 58 323 0.0 4.0 0.00 0.00 0.00 85 1009.8
20260902083043 59 360 0.0 4.0 0.00 0.00 0.00 85 1009.8
20260902081605 59 0 0.0 1.0 0.00 0.00 0.00 85 1010.1
20260902080054 59 0 0.0 1.0 0.00 0.00 0.00 85 1010.1
20260902074544 60 0 0.0 2.0 0.00 0.00 0.00 84 1010.3
20260902073039 60 0 0.0 1.0 0.00 0.00 0.00 84 1010.2
20260902071540 60 0 0.0 3.0 0.00 0.00 0.00 84 1010.4
20260902070045 60 360 1.0 4.0 0.00 0.00 0.00 84 1010.5
20260902064537 60 0 0.0 2.0 0.00 0.00 0.00 84 1010.4
20260902063100 60 155 0.0 3.0 0.00 0.00 0.00 84 1010.6
20260902061544 60 0 0.0 1.0 0.00 0.00 0.00 84 1010.6
20260902060054 60 360 0.0 3.0 0.00 0.00 0.00 84 1010.6
20260902054543 60 0 0.0 2.0 0.00 0.00 0.00 84 1010.8
20260902053044 61 0 0.0 2.0 0.00 0.00 0.00 83 1010.9
20260902051556 61 0 0.0 3.0 0.00 0.00 0.00 83 1010.9
20260902050039 61 360 0.0 4.0 0.00 0.00 0.00 83 1010.9
20260902044546 61 0 0.0 3.0 0.00 0.00 0.00 83 1010.9
20260902043038 61 0 0.0 4.0 0.00 0.00 0.00 84 1010.9
20260902041542 61 136 0.0 3.0 0.00 0.00 0.00 84 1011.0
20260902040037 61 0 0.0 2.0 0.00 0.00 0.00 84 1011.0
20260902034540 61 360 1.0 4.0 0.00 0.00 0.00 84 1010.9
20260902033044 60 360 1.0 5.0 0.00 0.00 0.00 85 1010.9
20260902031545 60 0 0.0 2.0 0.00 0.00 0.00 86 1010.8
20260902030039 60 0 0.0 2.0 0.00 0.00 0.00 87 1010.7
20260902024544 60 0 0.0 1.0 0.00 0.00 0.00 87 1010.7
20260902023046 60 0 0.0 4.0 0.00 0.00 0.00 86 1010.7
20260902021546 61 0 0.0 2.0 0.00 0.00 0.00 86 1010.8
20260902020050 61 360 0.0 6.0 0.00 0.00 0.00 84 1010.8
20260902014548 63 360 1.0 6.0 0.00 0.00 0.00 80 1010.8
20260902013042 65 360 3.0 9.0 0.00 0.00 0.00 73 1010.7
20260902011536 65 0 2.0 9.0 0.00 0.00 0.00 72 1010.6
20260902010040 65 360 1.0 6.0 0.00 0.00 0.00 73 1010.5
20260902004542 64 360 0.0 6.0 0.00 0.00 0.00 73 1010.6
20260902003037 64 0 1.0 5.0 0.00 0.00 0.00 74 1010.6
20260902001538 64 179 1.0 8.0 0.00 0.00 0.00 75 1010.6
20260902000043 65 0 1.0 6.0 0.00 0.00 0.00 74 1010.6
20260901234554 64 0 0.0 3.0 0.00 0.00 0.00 74 1010.6
20260901233052 64 269 0.0 7.0 0.00 0.00 0.00 74 1010.6
20260901231538 65 322 2.0 8.0 0.00 0.00 0.00 73 1010.5
20260901230048 66 232 2.0 8.0 0.00 0.00 0.00 73 1010.5
20260901224542 64 0 1.0 8.0 0.00 0.00 0.00 75 1010.5
20260901223038 64 360 0.0 4.0 0.00 0.00 0.00 76 1010.6
20260901221602 64 360 2.0 6.0 0.00 0.00 0.00 77 1010.6
20260901220043 64 291 2.0 5.0 0.00 0.00 0.00 75 1010.7
20260901214543 66 360 2.0 10.0 0.00 0.00 0.00 70 1010.4
20260901213040 65 296 2.0 9.0 0.00 0.00 0.00 71 1010.4
20260901211539 65 280 2.0 8.0 0.00 0.00 0.00 73 1010.8
20260901210039 66 261 1.0 6.0 0.00 0.00 0.00 72 1010.7
20260901204537 66 259 0.0 6.0 0.00 0.00 0.00 70 1010.7
20260901203055 66 266 2.0 9.0 0.00 0.00 0.00 69 1010.7
20260901201546 66 247 2.0 7.0 0.00 0.00 0.00 69 1010.7
20260901200038 66 268 3.0 9.0 0.00 0.00 0.00 69 1010.6
20260901194539 67 360 1.0 5.0 0.00 0.00 0.00 70 1010.6
20260901193054 66 360 2.0 10.0 0.00 0.00 0.00 71 1010.8
20260901191542 66 254 3.0 10.0 0.00 0.00 0.00 71 1010.9
20260901190043 66 159 1.0 8.0 0.00 0.00 0.00 73 1010.9
20260901184539 65 208 3.0 9.0 0.00 0.00 0.00 73 1011.0
20260901183041 65 158 1.0 8.0 0.00 0.00 0.00 74 1011.1
20260901181541 64 141 1.0 6.0 0.00 0.00 0.00 75 1010.9
20260901180041 64 131 1.0 7.0 0.00 0.00 0.00 75 1010.9
20260901174541 64 184 1.0 7.0 0.00 0.00 0.00 75 1010.8
20260901173044 64 0 0.0 5.0 0.00 0.00 0.00 75 1010.7
20260901171542 64 217 1.0 5.0 0.00 0.00 0.00 75 1010.5
20260901170042 64 360 1.0 5.0 0.00 0.00 0.00 75 1010.6
20260901164541 63 141 2.0 9.0 0.00 0.00 0.00 76 1010.6
20260901163038 63 299 1.0 7.0 0.00 0.00 0.00 76 1010.8
20260901161540 62 237 1.0 5.0 0.00 0.00 0.00 80 1010.8
20260901160052 60 360 1.0 6.0 0.00 0.00 0.00 83 1010.9
20260901154540 59 0 0.0 3.0 0.00 0.00 0.00 85 1011.0
20260901153040 58 0 0.0 4.0 0.00 0.00 0.00 88 1011.0
20260901151538 56 360 0.0 1.0 0.00 0.00 0.00 90 1011.0
20260901150041 55 0 0.0 3.0 0.00 0.00 0.00 90 1010.9
20260901144540 55 0 0.0 3.0 0.00 0.00 0.00 90 1010.9
20260901143039 53 0 0.0 0.0 0.00 0.00 0.00 91 1010.9
20260901141537 52 0 0.0 0.0 0.00 0.00 0.00 90 1010.9
20260901140039 52 0 0.0 0.0 0.00 0.00 0.00 90 1010.7
20260901134556 52 0 0.0 0.0 0.00 0.00 0.00 90 1010.5
20260901133041 51 0 0.0 0.0 0.00 0.00 0.00 89 1010.4
20260901131541 52 0 0.0 0.0 0.00 0.00 0.00 89 1010.5
20260901130038 52 0 0.0 0.0 0.00 0.00 0.00 89 1010.5
20260901124550 52 0 0.0 0.0 0.00 0.00 0.00 88 1010.4
20260901123039 52 0 0.0 0.0 0.00 0.00 0.00 88 1010.4
20260901121538 52 0 0.0 0.0 0.00 0.00 0.00 88 1010.3
20260901120055 52 0 0.0 0.0 0.00 0.00 0.00 88 1010.3
20260901114541 52 0 0.0 0.0 0.00 0.00 0.00 88 1010.2
20260901113104 52 0 0.0 0.0 0.00 0.00 0.00 88 1010.2
20260901111543 52 0 0.0 0.0 0.00 0.00 0.00 87 1010.0